Harlan, KY

11:35 PM EST on November 11, 2019 (GMT -0500)
Harlan

Weather History for KI35 - September, 2019

Change the Weather History Date:

Sunday, September 22, 2019

  Actual Average (KLOZ) Record (KLOZ)
Temperature  
Mean Temperature 72 °F -  
Max Temperature 86 °F 75 °F 91 °F (2005)
Min Temperature 58 °F 53 °F 35 °F (1983)
Cooling Degree Days 6    
Growing Degree Days 22 (Base 50)    
Moisture  
Dew Point 58 °F    
Average Humidity 73    
Maximum Humidity 99    
Minimum Humidity 34    
Precipitation  
Precipitation 0.00 in - - ()
Sea Level Pressure  
Sea Level Pressure 30.20 in    
Wind  
Wind Speed 1 mph ()    
Max Wind Speed 12 mph    
Max Gust Speed 17 mph    
Visibility 8.9 miles    
Events      
Averages and records for this station are not official NWS values.
T = Trace of Precipitation, MM = Missing Value Source: Averaged Metar Reports

Daily Weather History Graph

Daily Weather History Graph

Search for Another Location

Airport or City:

Astronomy

Sep. 22, 2019 Rise Set
Actual Time 7:21 AM EDT 7:30 PM EDT
Civil Twilight 6:55 AM EDT 7:56 PM EDT
Nautical Twilight 6:24 AM EDT 8:26 PM EDT
Astronomical Twilight 5:54 AM EDT 8:57 PM EDT
Moon 12:18 AM EDT (9/22) 3:15 PM EDT (9/22)
Length of Visible Light 13h 01m
Length of Day
12h 09m
Last Quarter, 44% of the Moon is Illuminated
Sep 22
Last Quarter
Sep 28
New
Oct 5
First Quarter
Oct 13
Full
Oct 21
Last Quarter

Hourly Weather History & Observations

Time (EDT) Temp. Heat Index Dew Point Humidity Pressure Visibility Wind Dir Wind Speed Gust Speed Precip Events Conditions
12:15 AM 63.0 °F - 61.0 °F 93% 30.26 in 10.0 mi Calm Calm - N/A   Clear
12:35 AM 62.8 °F - 60.8 °F 93% 30.26 in 10.0 mi Calm Calm - N/A   Clear
12:55 AM 62.6 °F - 60.8 °F 94% 30.26 in 10.0 mi Calm Calm - N/A   Clear
1:15 AM 62.1 °F - 60.6 °F 95% 30.25 in 10.0 mi Calm Calm - N/A   Clear
1:35 AM 61.7 °F - 60.4 °F 96% 30.25 in 10.0 mi Calm Calm - N/A   Clear
1:55 AM 61.5 °F - 60.3 °F 96% 30.25 in 10.0 mi Calm Calm - N/A   Clear
2:15 AM 61.0 °F - 60.1 °F 97% 30.25 in 10.0 mi Calm Calm - N/A   Clear
2:35 AM 60.8 °F - 59.9 °F 97% 30.25 in 10.0 mi Calm Calm - N/A   Clear
2:55 AM 60.4 °F - 59.9 °F 98% 30.25 in 10.0 mi Calm Calm - N/A   Clear
3:15 AM 60.4 °F - 59.9 °F 98% 30.25 in 7.0 mi Calm Calm - N/A   Clear
3:35 AM 59.9 °F - 59.4 °F 98% 30.24 in 7.0 mi Calm Calm - N/A   Clear
3:55 AM 59.9 °F - 59.4 °F 98% 30.24 in 7.0 mi Calm Calm - N/A   Clear
4:15 AM 59.5 °F - 59.0 °F 98% 30.24 in 7.0 mi Calm Calm - N/A   Clear
4:35 AM 59.4 °F - 59.0 °F 99% 30.25 in 7.0 mi Calm Calm - N/A   Clear
4:55 AM 59.0 °F - 58.6 °F 99% 30.25 in 7.0 mi Calm Calm - N/A   Clear
5:15 AM 59.0 °F - 58.5 °F 98% 30.25 in 7.0 mi Calm Calm - N/A   Scattered Clouds
5:35 AM 59.0 °F - 58.6 °F 99% 30.25 in 3.0 mi Calm Calm - N/A   Mostly Cloudy
5:55 AM 58.6 °F - 58.3 °F 99% 30.26 in 5.0 mi Calm Calm - N/A   Scattered Clouds
6:15 AM 58.3 °F - 57.9 °F 99% 30.26 in 5.0 mi Calm Calm - N/A   Scattered Clouds
6:35 AM 58.6 °F - 58.3 °F 99% 30.27 in 7.0 mi Calm Calm - N/A   Scattered Clouds
6:55 AM 58.1 °F - 57.7 °F 99% 30.27 in 5.0 mi Calm Calm - N/A   Mostly Cloudy
7:15 AM 58.1 °F - 57.6 °F 98% 30.27 in 5.0 mi Calm Calm - N/A   Scattered Clouds
7:55 AM 58.1 °F - 57.7 °F 99% 30.28 in 3.0 mi Calm Calm - N/A   Mostly Cloudy
8:15 AM 58.8 °F - 58.5 °F 99% 30.28 in 4.0 mi Calm Calm - N/A   Overcast
8:35 AM 59.2 °F - 58.8 °F 99% 30.28 in 4.0 mi Calm Calm - N/A   Overcast
8:55 AM 59.9 °F - 59.0 °F 97% 30.28 in 7.0 mi Calm Calm - N/A   Overcast
9:15 AM 62.8 °F - 60.1 °F 91% 30.28 in 10.0 mi Calm Calm - N/A   Scattered Clouds
9:35 AM 64.6 °F - 60.8 °F 88% 30.27 in 10.0 mi Calm Calm - N/A   Clear
9:55 AM 66.6 °F - 61.2 °F 83% 30.27 in 10.0 mi Calm Calm - N/A   Clear
10:15 AM 68.9 °F - 61.7 °F 78% 30.27 in 10.0 mi Calm Calm - N/A   Clear
10:35 AM 71.2 °F - 61.3 °F 71% 30.27 in 10.0 mi Calm Calm - N/A   Clear
10:55 AM 72.5 °F - 61.0 °F 67% 30.26 in 10.0 mi Calm Calm - N/A   Clear
11:15 AM 75.0 °F - 60.8 °F 61% 30.25 in 10.0 mi Calm Calm - N/A   Clear
11:55 AM 78.4 °F - 59.0 °F 51% 30.25 in 10.0 mi WSW 4.6 mph - N/A   Clear
12:15 PM 79.2 °F - 57.4 °F 47% 30.23 in 10.0 mi SW 5.8 mph - N/A   Clear
12:35 PM 79.5 °F - 58.6 °F 49% 30.23 in 10.0 mi Calm Calm - N/A   Clear
12:55 PM 80.6 °F 80.9 °F 57.9 °F 46% 30.22 in 10.0 mi West 9.2 mph - N/A   Scattered Clouds
1:15 PM 82.0 °F 81.8 °F 57.4 °F 43% 30.21 in 10.0 mi WNW 3.5 mph - N/A   Clear
1:55 PM 83.8 °F 82.8 °F 55.4 °F 38% 30.18 in 10.0 mi SW 5.8 mph - N/A   Clear
2:15 PM 83.5 °F 82.5 °F 55.6 °F 38% 30.17 in 10.0 mi West 10.4 mph - N/A   Clear
2:35 PM 84.0 °F 83.2 °F 56.7 °F 39% 30.17 in 10.0 mi WSW 3.5 mph - N/A   Clear
2:55 PM 84.4 °F 83.4 °F 56.1 °F 38% 30.16 in 10.0 mi West 8.1 mph - N/A   Clear
3:15 PM 85.3 °F 83.9 °F 55.8 °F 36% 30.15 in 10.0 mi West 11.5 mph 17.3 mph N/A   Clear
3:35 PM 85.1 °F 84.1 °F 56.5 °F 38% 30.14 in 10.0 mi West 8.1 mph - N/A   Clear
3:55 PM 85.6 °F 84.5 °F 56.7 °F 37% 30.13 in 10.0 mi West 3.5 mph - N/A   Clear
4:15 PM 84.6 °F 83.5 °F 56.3 °F 38% 30.13 in 10.0 mi South 4.6 mph - N/A   Clear
4:35 PM 85.5 °F 84.0 °F 55.2 °F 35% 30.13 in 10.0 mi WSW 5.8 mph - N/A   Clear
4:55 PM 85.1 °F 83.5 °F 54.1 °F 34% 30.13 in 10.0 mi West 10.4 mph - N/A   Clear
5:15 PM 84.4 °F 83.2 °F 55.4 °F 37% 30.13 in 10.0 mi West 6.9 mph - N/A   Clear
5:35 PM 84.0 °F 83.0 °F 55.6 °F 38% 30.12 in 10.0 mi WSW 4.6 mph - N/A   Clear
5:55 PM 84.0 °F 83.2 °F 56.3 °F 39% 30.12 in 10.0 mi WSW 5.8 mph - N/A   Clear
6:15 PM 83.3 °F 82.6 °F 56.3 °F 40% 30.12 in 10.0 mi SSW 4.6 mph - N/A   Clear
6:35 PM 82.8 °F 82.1 °F 56.3 °F 40% 30.12 in 10.0 mi SW 4.6 mph - N/A   Clear
6:55 PM 81.3 °F 81.2 °F 56.7 °F 43% 30.12 in 10.0 mi WSW 3.5 mph - N/A   Clear
7:15 PM 80.1 °F 80.4 °F 57.0 °F 45% 30.12 in 10.0 mi WSW 4.6 mph - N/A   Clear
7:35 PM 78.3 °F - 57.0 °F 48% 30.12 in 10.0 mi Calm Calm - N/A   Clear
7:55 PM 77.0 °F - 57.4 °F 51% 30.12 in 10.0 mi Calm Calm - N/A   Clear
8:15 PM 73.8 °F - 58.1 °F 58% 30.12 in 10.0 mi Calm Calm - N/A   Clear
8:35 PM 71.4 °F - 58.3 °F 63% 30.13 in 10.0 mi Calm Calm - N/A   Clear
8:55 PM 69.1 °F - 58.8 °F 70% 30.13 in 10.0 mi Calm Calm - N/A   Clear
9:35 PM 66.4 °F - 59.2 °F 78% 30.13 in 10.0 mi Calm Calm - N/A   Clear
9:55 PM 66.2 °F - 59.2 °F 78% 30.14 in 10.0 mi Calm Calm - N/A   Clear
10:15 PM 64.9 °F - 59.4 °F 82% 30.14 in 10.0 mi Calm Calm - N/A   Clear
10:35 PM 64.4 °F - 59.4 °F 84% 30.14 in 10.0 mi Calm Calm - N/A   Clear
10:55 PM 63.5 °F - 59.4 °F 86% 30.14 in 10.0 mi Calm Calm - N/A   Clear
11:15 PM 63.0 °F - 59.4 °F 88% 30.14 in 10.0 mi Calm Calm - N/A   Clear
11:35 PM 61.9 °F - 59.4 °F 91% 30.14 in 10.0 mi Calm Calm - N/A   Clear
11:55 PM 61.3 °F - 59.2 °F 93% 30.14 in 10.0 mi Calm Calm - N/A   Clear